This is the latest recevied weather packets stored in our database for station/object OK2JCZ-6. If no packets are shown the sender has not sent any weather packets the latest 10 day(s).
| Time | Temp. | Humidity | Pressure | Rain* | Wind** | Luminosity | Snow |
|---|---|---|---|---|---|---|---|
| 1777734278 | 26.11° C | 20% | 1020.4 hPa | 0 mm | - | - | - |
| 1777733378 | 24.44° C | 21% | 1020.6 hPa | 0 mm | - | - | - |
| 1777733078 | 24.44° C | 21% | 1020.6 hPa | 0 mm | - | - | - |
| 1777732778 | 24.44° C | 20% | 1020.6 hPa | 0 mm | - | - | - |
| 1777730078 | 24.44° C | 22% | 1021.1 hPa | 0 mm | - | - | - |
| 1777729478 | 23.89° C | 21% | 1021.2 hPa | 0 mm | - | - | - |
| 1777728578 | 25° C | 22% | 1021.3 hPa | 0 mm | - | - | - |
| 1777727978 | 25° C | 22% | 1021.4 hPa | 0 mm | - | - | - |
| 1777727678 | 25° C | 21% | 1021.5 hPa | 0 mm | - | - | - |
| 1777727378 | 25° C | 23% | 1021.6 hPa | 0 mm | - | - | - |
| 1777727078 | 25° C | 22% | 1021.7 hPa | 0 mm | - | - | - |
| 1777726778 | 25° C | 22% | 1021.7 hPa | 0 mm | - | - | - |
| 1777726478 | 25° C | 23% | 1021.7 hPa | 0 mm | - | - | - |
| 1777726178 | 25° C | 22% | 1021.8 hPa | 0 mm | - | - | - |
| 1777725878 | 25° C | 22% | 1021.8 hPa | 0 mm | - | - | - |
| 1777725278 | 24.44° C | 22% | 1022 hPa | 0 mm | - | - | - |
| 1777723178 | 22.22° C | 23% | 1022.4 hPa | 0 mm | - | - | - |
| 1777722878 | 22.22° C | 23% | 1022.4 hPa | 0 mm | - | - | - |
| 1777722578 | 22.78° C | 23% | 1022.5 hPa | 0 mm | - | - | - |
| 1777722278 | 22.78° C | 23% | 1022.6 hPa | 0 mm | - | - | - |
| 1777721978 | 23.33° C | 23% | 1022.6 hPa | 0 mm | - | - | - |
| 1777721678 | 23.33° C | 22% | 1022.7 hPa | 0 mm | - | - | - |
| 1777721078 | 22.78° C | 23% | 1022.8 hPa | 0 mm | - | - | - |
| 1777720478 | 22.22° C | 23% | 1022.9 hPa | 0 mm | - | - | - |
| 1777720178 | 22.22° C | 23% | 1023 hPa | 0 mm | - | - | - |
* Rain latest hour (hover to see other rain measurements)
** Current wind speed in m/s (hover to see current wind gust speed)